Find Kosmos-1579

NORAD ID: 15085 Int'l Des: 1984-069 Owner: VMF Country: SU operational
LEOCIRCULAR

現在のビュー

3D地球を読み込み中...

Kosmos-1579について

説明を読み込み中...

次回通過

Passes for default location (London). Set your location on the main map for personalized predictions.

高度履歴

Loading altitude history...

軌道要素

1 15085U 84069A 26151.19185567 -.00000065 00000-0 20253-4 0 9991
2 15085 65.0491 128.1431 0039644 20.1844 340.0774 13.86219261123427
Epoch: May 31, 2026 • Age: 8 hours

現在のステータス

高度 979.0 km
速度 7.35 km/s
衛星直下点 -24.95°S, 117.21°W
打ち上げ日 Jun 29, 1984
運用期間 41.9 years
タイプ other

技術仕様

分類 Payload
質量 1154.00 kg
乾燥質量 1154.00 kg
総質量 4300.00 kg
長さ 5.80 m
直径 1.30 m
スパン 5.80 m
形状 Cyl
製造者 KOMET
バスタイプ US-A reactor
フェーズステータス In Orbit
所有者/国 VMF/SU

Most Searched